KA3WVU Weather Reports


time (UTC)temp
C
wind
direction
speed
KPH
gust
KPH
rain 1hr
cm
rain 24hr
cm
rain mn
cm
humidity
%
barometer
mb
20260509135042 8 170 3.2 3.2 0.00 0.00 0.00 99 1008.6
20260509134538 8 144 1.6 1.6 0.00 0.00 0.00 99 1008.6
20260509134036 8 165 3.2 3.2 0.00 0.00 0.00 99 1008.5
20260509133532 7 195 0.0 1.6 0.00 0.00 0.00 99 1008.6
20260509133030 7 122 1.6 1.6 0.00 0.00 0.00 99 1008.6
20260509132528 7 190 1.6 1.6 0.00 0.00 0.00 99 1008.6
20260509132026 7 184 3.2 3.2 0.00 0.00 0.00 99 1008.6
20260509131521 7 199 1.6 1.6 0.00 0.00 0.00 99 1008.7
20260509131018 7 145 3.2 4.8 0.00 0.00 0.00 99 1008.9
20260509130514 7 156 1.6 3.2 0.00 0.00 0.00 99 1008.8
20260509130011 7 201 1.6 1.6 0.00 0.00 0.00 99 1008.7
20260509125508 7 214 1.6 1.6 0.00 0.00 0.00 99 1008.7
20260509125004 7 199 3.2 3.2 0.00 0.00 0.00 99 1008.8
20260509124501 7 197 1.6 3.2 0.00 0.00 0.00 99 1008.8
20260509123958 7 116 1.6 3.2 0.00 0.00 0.00 99 1008.7
20260509123455 7 198 1.6 1.6 0.00 0.00 0.00 99 1008.9
20260509122951 7 179 1.6 3.2 0.00 0.00 0.00 99 1008.7
20260509122448 7 172 3.2 3.2 0.00 0.00 0.00 99 1008.7
20260509121945 7 175 1.6 1.6 0.00 0.00 0.00 99 1008.8
20260509121442 7 198 3.2 3.2 0.00 0.00 0.00 99 1009.0
20260509120940 7 163 3.2 3.2 0.00 0.00 0.00 99 1008.7
20260509120438 7 187 3.2 3.2 0.00 0.00 0.00 99 1008.8
20260509115935 7 145 3.2 4.8 0.00 0.00 0.00 99 1008.9
20260509115432 7 145 3.2 3.2 0.00 0.00 0.00 99 1008.7
20260509114929 7 161 3.2 3.2 0.00 0.00 0.00 99 1009.0
20260509114428 7 186 3.2 4.8 0.00 0.00 0.00 99 1008.9
20260509113927 7 167 1.6 1.6 0.00 0.00 0.00 99 1009.1
20260509113424 7 196 1.6 1.6 0.00 0.00 0.00 99 1008.8
20260509112921 7 177 1.6 1.6 0.00 0.00 0.00 99 1009.1
20260509112418 6 168 1.6 1.6 0.00 0.00 0.00 99 1009.1
20260509111915 6 162 1.6 1.6 0.00 0.00 0.00 99 1009.3
20260509111412 6 108 1.6 1.6 0.00 0.00 0.00 99 1009.1
20260509110910 6 145 1.6 3.2 0.00 0.00 0.00 99 1009.1
20260509110405 6 146 3.2 3.2 0.00 0.00 0.00 99 1009.1
20260509105904 6 171 3.2 3.2 0.00 0.00 0.00 99 1009.0
20260509105402 6 107 3.2 3.2 0.00 0.00 0.00 99 1008.9
20260509104858 6 109 3.2 3.2 0.00 0.00 0.00 99 1008.9
20260509104355 6 145 3.2 3.2 0.00 0.00 0.00 99 1008.9
20260509103853 6 119 1.6 1.6 0.00 0.00 0.00 99 1009.1
20260509103350 6 114 3.2 3.2 0.00 0.00 0.00 99 1009.0
20260509102849 6 109 1.6 1.6 0.00 0.00 0.00 99 1009.1
20260509102345 6 112 1.6 1.6 0.00 0.00 0.00 99 1009.0
20260509101841 6 99 1.6 1.6 0.00 0.00 0.00 99 1009.1
20260509101337 6 134 0.0 1.6 0.00 0.00 0.00 99 1009.0
20260509100836 6 100 3.2 3.2 0.00 0.00 0.00 99 1009.0
20260509100332 6 116 1.6 1.6 0.00 0.00 0.00 99 1009.0
20260509095829 6 90 3.2 3.2 0.00 0.00 0.00 99 1009.1
20260509095326 6 101 1.6 3.2 0.00 0.00 0.00 99 1009.1
20260509094823 6 111 1.6 3.2 0.00 0.00 0.00 99 1009.1
20260509094320 6 110 3.2 3.2 0.00 0.00 0.00 99 1009.4
20260509093818 6 101 3.2 3.2 0.00 0.00 0.00 99 1009.4
20260509093315 6 115 1.6 1.6 0.00 0.00 0.00 99 1009.5
20260509092813 6 126 0.0 0.0 0.00 0.00 0.00 99 1009.3
20260509092311 6 141 0.0 0.0 0.00 0.00 0.00 99 1009.4
20260509091809 6 98 0.0 0.0 0.00 0.00 0.00 99 1009.4
20260509091305 6 128 0.0 0.0 0.00 0.00 0.00 99 1009.4
20260509090803 6 107 3.2 3.2 0.00 0.00 0.00 99 1009.4
20260509090259 6 146 0.0 0.0 0.00 0.00 0.00 99 1009.3
20260509085757 6 117 1.6 3.2 0.00 0.00 0.00 99 1009.3
20260509085254 6 91 0.0 0.0 0.00 0.00 0.00 99 1009.4
20260509084750 6 166 0.0 0.0 0.00 0.00 0.00 99 1009.3
20260509084247 6 95 0.0 0.0 0.00 0.00 0.00 99 1009.3
20260509083745 6 133 0.0 0.0 0.00 0.00 0.00 99 1009.5
20260509083242 6 93 0.0 0.0 0.00 0.00 0.00 99 1009.1
20260509082738 6 93 0.0 0.0 0.00 0.00 0.00 99 1009.3
20260509082235 6 94 0.0 0.0 0.00 0.00 0.00 99 1009.1
20260509081732 6 100 0.0 0.0 0.00 0.00 0.00 99 1009.3
20260509081230 6 88 0.0 0.0 0.00 0.00 0.00 99 1009.1
20260509080728 6 99 0.0 0.0 0.00 0.00 0.00 99 1009.3
20260509080225 6 102 0.0 0.0 0.00 0.00 0.00 99 1009.5
20260509075723 6 99 0.0 0.0 0.00 0.00 0.00 99 1009.5
20260509075220 6 106 0.0 0.0 0.00 0.00 0.00 99 1009.4
20260509074717 6 112 0.0 0.0 0.00 0.00 0.00 99 1009.4
20260509074215 6 89 0.0 0.0 0.00 0.00 0.00 99 1009.5
20260509073711 6 109 1.6 1.6 0.00 0.00 0.00 99 1009.7
20260509073207 6 126 0.0 0.0 0.00 0.00 0.00 99 1009.7
20260509072704 6 129 0.0 0.0 0.00 0.00 0.00 99 1009.5
20260509072201 6 145 0.0 0.0 0.00 0.00 0.00 99 1009.6
20260509071657 6 106 1.6 1.6 0.00 0.00 0.00 99 1009.6
20260509071155 6 120 1.6 3.2 0.00 0.00 0.00 99 1009.7
20260509070651 6 99 0.0 1.6 0.00 0.00 0.00 99 1009.8
20260509070148 6 97 3.2 3.2 0.00 0.00 0.00 99 1009.8
20260509065644 6 146 3.2 3.2 0.00 0.00 0.00 99 1009.9
20260509065140 6 113 0.0 0.0 0.00 0.00 0.00 99 1009.8
20260509064637 6 100 1.6 3.2 0.00 0.00 0.00 99 1009.9
20260509064135 6 97 1.6 3.2 0.00 0.00 0.00 99 1009.9
20260509063632 6 99 3.2 3.2 0.00 0.00 0.00 99 1010.1
20260509063128 6 104 1.6 1.6 0.00 0.00 0.00 99 1010.0
20260509062626 6 109 1.6 1.6 0.00 0.00 0.00 99 1010.2
20260509062122 6 110 1.6 1.6 0.00 0.00 0.00 99 1010.2
20260509061619 6 121 0.0 0.0 0.00 0.00 0.00 99 1010.3
20260509061117 6 101 1.6 1.6 0.00 0.00 0.00 99 1010.2
20260509060614 6 79 1.6 1.6 0.00 0.00 0.00 99 1010.1
20260509060110 6 86 0.0 0.0 0.00 0.00 0.00 99 1010.3
20260509055605 6 128 0.0 0.0 0.00 0.00 0.00 99 1010.4
20260509055101 6 103 0.0 0.0 0.00 0.00 0.00 99 1010.4
20260509054558 6 165 0.0 0.0 0.00 0.00 0.00 99 1010.8
20260509054056 6 149 0.0 0.0 0.00 0.00 0.00 99 1010.5
20260509053555 6 140 0.0 0.0 0.00 0.00 0.00 99 1010.8
20260509053051 6 180 0.0 0.0 0.00 0.00 0.00 99 1011.0
20260509052549 6 167 0.0 0.0 0.00 0.00 0.00 99 1011.0
20260509052047 6 157 0.0 0.0 0.00 0.00 0.00 99 1011.0
20260509051545 6 166 0.0 0.0 0.00 0.00 0.00 99 1011.0
20260509051041 6 159 0.0 0.0 0.00 0.00 0.00 99 1011.2
20260509050538 6 170 0.0 0.0 0.00 0.00 0.00 99 1011.1
20260509050034 6 168 0.0 0.0 0.00 0.00 0.00 99 1011.2
20260509045532 6 154 0.0 0.0 0.00 0.00 0.00 99 1011.4
20260509045029 6 146 0.0 0.0 0.00 0.00 0.00 99 1011.2
20260509044526 6 166 0.0 0.0 0.00 0.00 0.00 99 1011.3
20260509044024 6 165 0.0 0.0 0.00 0.00 0.00 99 1011.4
20260509043520 6 166 0.0 0.0 0.00 0.00 0.00 99 1011.6
20260509043010 6 170 0.0 0.0 0.00 0.00 0.00 99 1011.6
20260509042506 6 164 0.0 0.0 0.00 0.00 0.00 99 1011.7
20260509042002 6 186 0.0 0.0 0.00 0.00 0.00 99 1011.5
20260509041459 6 186 0.0 0.0 0.00 0.00 0.00 99 1011.6
20260509040957 6 179 0.0 0.0 0.00 0.00 0.00 99 1011.7
20260509040455 6 164 0.0 0.0 0.00 0.00 0.00 99 1011.6
20260509035951 6 164 0.0 0.0 0.00 0.00 0.00 99 1011.8
20260509035448 6 110 1.6 1.6 0.00 0.00 0.00 99 1011.7
20260509034945 6 181 0.0 0.0 0.00 0.00 0.00 99 1011.8
20260509034443 6 180 0.0 0.0 0.00 0.00 0.00 99 1011.9
20260509033939 6 181 0.0 0.0 0.00 0.00 0.00 99 1011.8
20260509033437 6 173 0.0 0.0 0.00 0.00 0.00 99 1011.8
20260509032933 6 167 0.0 0.0 0.00 0.00 0.00 99 1011.7
20260509032431 6 201 0.0 0.0 0.00 0.00 0.00 98 1011.7
20260509031929 6 207 0.0 0.0 0.00 0.00 0.00 98 1011.6
20260509031426 6 222 0.0 0.0 0.00 0.00 0.00 97 1011.9
20260509030923 6 232 0.0 0.0 0.00 0.00 0.00 97 1011.6
20260509030421 6 225 0.0 0.0 0.00 0.00 0.00 97 1011.9
20260509025918 6 276 0.0 1.6 0.00 0.00 0.00 97 1011.8
20260509025413 6 314 1.6 1.6 0.00 0.00 0.00 97 1011.8
20260509024908 6 228 0.0 1.6 0.00 0.00 0.00 96 1012.0
20260509024405 6 287 1.6 1.6 0.00 0.00 0.00 96 1012.1
20260509023902 6 254 0.0 0.0 0.00 0.00 0.00 96 1012.0
20260509023359 6 291 0.0 0.0 0.00 0.00 0.00 96 1011.9
20260509022855 6 245 0.0 0.0 0.00 0.00 0.00 95 1011.9
20260509022353 6 243 0.0 0.0 0.00 0.00 0.00 95 1011.7
20260509021850 6 291 1.6 1.6 0.00 0.00 0.00 95 1011.8
20260509021347 6 263 1.6 1.6 0.00 0.00 0.00 95 1011.7
20260509020845 6 285 1.6 3.2 0.00 0.00 0.00 94 1011.6
20260509020343 6 281 1.6 1.6 0.00 0.00 0.00 94 1011.7
20260509015840 6 262 1.6 1.6 0.00 0.00 0.00 94 1011.6
20260509015338 6 208 3.2 3.2 0.00 0.00 0.00 95 1011.7
20260509014834 6 262 3.2 3.2 0.00 0.00 0.00 95 1011.5
20260509014326 6 240 3.2 3.2 0.00 0.00 0.00 95 1011.6
20260509013822 6 225 1.6 3.2 0.00 0.00 0.00 95 1011.7
20260509013319 7 302 4.8 4.8 0.00 0.00 0.00 95 1011.8
20260509012814 7 237 1.6 3.2 0.00 0.00 0.00 95 1011.5
20260509012311 7 284 1.6 1.6 0.00 0.00 0.00 94 1011.7
20260509011809 7 320 3.2 3.2 0.00 0.00 0.00 94 1011.5
20260509011306 7 290 3.2 3.2 0.00 0.00 0.00 94 1011.3
20260509010803 7 291 3.2 3.2 0.00 0.00 0.00 94 1011.4
20260509010300 7 250 1.6 1.6 0.00 0.00 0.00 94 1011.3
20260509005758 7 277 3.2 4.8 0.00 0.00 0.00 94 1011.0
20260509005256 7 318 1.6 1.6 0.00 0.00 0.00 94 1011.0
20260509004749 7 311 3.2 4.8 0.00 0.00 0.00 94 1011.0
20260509004247 7 314 3.2 4.8 0.00 0.00 0.00 93 1011.1
20260509003745 7 297 4.8 4.8 0.00 0.00 0.00 93 1011.0
20260509003242 7 273 1.6 3.2 0.00 0.00 0.00 93 1010.9
20260509002739 7 299 3.2 3.2 0.00 0.00 0.00 92 1011.0
20260509002231 7 208 3.2 3.2 0.00 0.00 0.00 91 1011.0
20260509001729 7 268 6.4 6.4 0.00 0.00 0.00 91 1010.8
20260509001224 7 214 1.6 3.2 0.00 0.00 0.00 92 1010.8
20260509000723 7 236 3.2 4.8 0.00 0.00 0.00 92 1010.8
20260509000220 7 196 1.6 3.2 0.00 0.00 0.00 92 1011.0
20260508235717 7 227 4.8 4.8 0.00 0.00 0.00 90 1011.1
20260508235213 7 178 3.2 3.2 0.00 0.00 0.00 88 1011.1
20260508234710 8 216 3.2 4.8 0.00 0.00 0.00 87 1010.9
20260508234206 8 145 4.8 6.4 0.00 0.00 0.00 85 1010.9
20260508233706 8 241 4.8 4.8 0.00 0.00 0.00 85 1011.0
20260508233203 8 197 3.2 4.8 0.00 0.00 0.00 82 1011.0
20260508232700 8 222 4.8 4.8 0.00 0.00 0.00 84 1011.0
20260508232156 8 241 3.2 3.2 0.00 0.00 0.00 86 1010.8
20260508231655 8 183 3.2 6.4 0.00 0.00 0.00 82 1010.9
20260508231151 8 185 3.2 3.2 0.00 0.00 0.00 85 1010.9
20260508230648 8 169 4.8 6.4 0.00 0.00 0.00 83 1011.1
20260508230144 8 234 3.2 4.8 0.00 0.00 0.00 84 1010.8
20260508225642 8 238 3.2 3.2 0.00 0.00 0.00 85 1010.9
20260508225138 8 205 3.2 4.8 0.00 0.00 0.00 82 1010.6
20260508224636 8 229 3.2 3.2 0.00 0.00 0.00 84 1010.8
20260508224134 8 124 3.2 3.2 0.00 0.00 0.00 84 1010.8
20260508223631 9 297 4.8 4.8 0.00 0.00 0.00 84 1010.9
20260508223128 9 253 3.2 3.2 0.00 0.00 0.00 85 1010.8
20260508222625 9 207 1.6 1.6 0.00 0.00 0.00 86 1010.6
20260508222122 9 280 3.2 4.8 0.00 0.00 0.00 85 1010.9
20260508221618 9 229 3.2 3.2 0.00 0.00 0.00 86 1010.6
20260508221114 9 1 4.8 4.8 0.00 0.00 0.00 85 1010.5
20260508220611 8 220 3.2 3.2 0.00 0.00 0.00 86 1010.8
20260508220108 8 222 3.2 3.2 0.00 0.00 0.00 85 1010.6
20260508215604 9 201 3.2 3.2 0.00 0.00 0.00 86 1010.8
20260508215101 9 201 0.0 1.6 0.00 0.00 0.00 88 1010.6
20260508214559 9 224 1.6 3.2 0.00 0.00 0.00 88 1010.5
20260508214055 9 168 3.2 4.8 0.00 0.00 0.00 88 1010.8
20260508213552 9 158 3.2 3.2 0.00 0.00 0.00 90 1010.3
20260508213048 8 217 1.6 1.6 0.00 0.00 0.00 90 1010.4
20260508212545 8 251 3.2 4.8 0.00 0.00 0.00 89 1010.6
20260508212041 9 222 1.6 3.2 0.00 0.00 0.00 91 1010.6
20260508211537 8 196 1.6 3.2 0.00 0.00 0.00 90 1010.8
20260508211033 8 198 1.6 3.2 0.00 0.00 0.00 91 1010.8
20260508210530 8 204 1.6 3.2 0.00 0.00 0.00 93 1011.1
20260508210028 8 223 1.6 1.6 0.00 0.00 0.00 93 1010.8
20260508205524 8 241 1.6 1.6 0.00 0.00 0.00 95 1010.5
20260508205020 7 216 0.0 0.0 0.00 0.00 0.00 94 1011.0
20260508204518 7 250 3.2 3.2 0.00 0.00 0.00 95 1010.9
20260508204013 7 232 3.2 4.8 0.00 0.00 0.00 94 1011.0
20260508203509 7 220 1.6 1.6 0.00 0.00 0.00 94 1011.0
20260508203005 7 224 1.6 1.6 0.00 0.00 0.00 95 1011.0
20260508202502 7 217 1.6 1.6 0.00 0.00 0.00 93 1010.9
20260508201959 7 186 1.6 3.2 0.00 0.00 0.00 93 1011.3
20260508201456 7 265 1.6 3.2 0.00 0.00 0.00 94 1011.2
20260508200952 7 253 1.6 3.2 0.00 0.00 0.00 93 1011.1
20260508200450 8 230 1.6 3.2 0.00 0.00 0.00 92 1011.3
20260508195944 8 244 3.2 3.2 0.00 0.00 0.00 89 1011.2
20260508195442 9 308 4.8 4.8 0.00 0.00 0.00 85 1011.3
20260508194938 10 184 1.6 3.2 0.00 0.00 0.00 74 1011.2
20260508194436 11 215 3.2 4.8 0.00 0.00 0.00 70 1010.9
20260508193932 11 181 0.0 0.0 0.00 0.00 0.00 71 1010.6
20260508193430 11 185 0.0 1.6 0.00 0.00 0.00 74 1010.8
20260508192925 11 195 0.0 1.6 0.00 0.00 0.00 75 1010.9
20260508192423 10 215 1.6 1.6 0.00 0.00 0.00 71 1010.9
20260508191920 10 291 1.6 3.2 0.00 0.00 0.00 81 1011.0
20260508191417 10 201 0.0 0.0 0.00 0.00 0.00 73 1011.1
20260508190914 11 244 1.6 3.2 0.00 0.00 0.00 71 1011.1
20260508190411 11 212 3.2 3.2 0.00 0.00 0.00 65 1011.0
20260508185907 12 166 1.6 3.2 0.00 0.00 0.00 65 1011.0
20260508185405 12 211 0.0 1.6 0.00 0.00 0.00 65 1010.9
20260508184902 12 193 0.0 1.6 0.00 0.00 0.00 65 1011.0
20260508184359 12 277 3.2 4.8 0.00 0.00 0.00 72 1011.1
20260508183856 12 217 4.8 4.8 0.00 0.00 0.00 71 1011.3
20260508183352 12 157 6.4 11.3 0.00 0.00 0.00 70 1011.3
20260508182847 11 185 3.2 3.2 0.00 0.00 0.00 76 1011.2
20260508182344 11 294 4.8 4.8 0.00 0.00 0.00 77 1011.3
20260508181840 10 282 4.8 4.8 0.00 0.00 0.00 78 1011.5
20260508181337 9 235 3.2 3.2 0.00 0.00 0.00 84 1011.1
20260508180834 8 301 3.2 4.8 0.00 0.00 0.00 84 1011.3
20260508180331 8 29 8.0 9.7 0.00 0.00 0.00 88 1011.4
20260508175827 7 242 3.2 4.8 0.00 0.00 0.00 91 1011.4
20260508175324 7 353 3.2 3.2 0.00 0.00 0.00 92 1011.5
20260508174822 7 303 6.4 6.4 0.00 0.00 0.00 89 1011.8
20260508174319 7 212 1.6 3.2 0.00 0.00 0.00 90 1011.8
20260508173815 7 281 4.8 4.8 0.00 0.00 0.00 92 1012.0
20260508173312 7 328 4.8 4.8 0.00 0.00 0.00 92 1011.8
20260508172808 7 121 6.4 9.7 0.00 0.00 0.00 87 1012.5
20260508172307 8 274 8.0 9.7 0.00 0.00 0.00 80 1012.1
20260508171801 8 282 8.0 9.7 0.00 0.00 0.00 77 1012.3
20260508171258 10 300 6.4 6.4 0.00 0.00 0.00 74 1011.8
20260508170755 10 291 3.2 4.8 0.00 0.00 0.00 76 1011.9
20260508170253 8 238 4.8 4.8 0.00 0.00 0.00 78 1011.8
20260508165744 9 107 3.2 3.2 0.00 0.00 0.00 74 1011.9
20260508165242 10 207 1.6 1.6 0.00 0.00 0.00 69 1011.9
20260508164737 10 227 4.8 4.8 0.00 0.00 0.00 67 1011.9
20260508164233 11 168 3.2 4.8 0.00 0.00 0.00 65 1011.9
20260508163732 10 222 1.6 3.2 0.00 0.00 0.00 67 1011.8
20260508163229 10 207 3.2 3.2 0.00 0.00 0.00 66 1011.9
20260508162725 10 29 6.4 6.4 0.00 0.00 0.00 69 1012.3
20260508162222 9 222 3.2 6.4 0.00 0.00 0.00 68 1012.3
20260508161719 10 224 3.2 4.8 0.00 0.00 0.00 68 1012.3
20260508161216 10 311 4.8 4.8 0.00 0.00 0.00 65 1012.4
20260508160714 10 240 1.6 1.6 0.00 0.00 0.00 66 1012.3
20260508160212 10 250 3.2 4.8 0.00 0.00 0.00 65 1011.8
20260508155708 10 202 4.8 9.7 0.00 0.00 0.00 65 1011.8
20260508155205 11 214 4.8 6.4 0.00 0.00 0.00 65 1011.9
20260508154702 10 211 3.2 6.4 0.00 0.00 0.00 63 1011.9
20260508154159 10 266 6.4 11.3 0.00 0.00 0.00 67 1012.0
20260508153656 9 218 1.6 1.6 0.00 0.00 0.00 69 1012.1
20260508153153 8 237 4.8 4.8 0.00 0.00 0.00 70 1012.1
20260508152649 8 278 4.8 4.8 0.00 0.00 0.00 68 1012.1
20260508152145 9 228 1.6 1.6 0.00 0.00 0.00 69 1012.0
20260508151642 10 288 4.8 4.8 0.00 0.00 0.00 68 1011.9
20260508151138 9 323 4.8 4.8 0.00 0.00 0.00 70 1011.9
20260508150637 8 263 4.8 6.4 0.00 0.00 0.00 69 1012.0
20260508150133 9 204 4.8 6.4 0.00 0.00 0.00 69 1012.1
20260508145629 8 244 4.8 6.4 0.00 0.00 0.00 71 1012.1
20260508145125 8 302 3.2 3.2 0.00 0.00 0.00 71 1012.3
20260508144623 8 198 8.0 11.3 0.00 0.00 0.00 69 1012.0
20260508144120 9 301 9.7 12.9 0.00 0.00 0.00 70 1012.0
20260508143617 9 239 4.8 4.8 0.00 0.00 0.00 69 1011.8
20260508143114 10 172 8.0 9.7 0.00 0.00 0.00 67 1011.9
20260508142610 9 281 6.4 6.4 0.00 0.00 0.00 69 1011.9
20260508142107 10 190 4.8 4.8 0.00 0.00 0.00 68 1011.7
20260508141604 10 201 8.0 12.9 0.00 0.00 0.00 68 1011.8
20260508141056 9 13 3.2 6.4 0.00 0.00 0.00 68 1011.7
20260508140553 8 244 1.6 3.2 0.00 0.00 0.00 70 1011.6
20260508140049 8 209 3.2 3.2 0.00 0.00 0.00 72 1011.5
20260508135545 8 172 3.2 4.8 0.00 0.00 0.00 71 1011.6